Regional Weather Roundup
Issued by NWS

Home | Current Version | Previous Version | Graphics & Text | Print | Product List | Glossary On
Versions: 1 2 3 4 5 6 7 8 9 10 11 12 13 14 15 16 17 18 19 20 21 22 23 24 25 26 27 28 29 30 31 32 33 34 35 36 37 38 39 40 41 42 43 44 45 46 47 48 49 50
787
ASUS43 KFSD 021910
RWRSD

WEATHER ROUNDUP FOR SOUTH DAKOTA
NATIONAL WEATHER SERVICE SIOUX FALLS SD
200 PM CDT MON MAY 02 2016

NOTE: "FAIR" INDICATES FEW OR NO CLOUDS BELOW 12,000 FEET WITH NO
SIGNIFICANT WEATHER AND/OR OBSTRUCTIONS TO VISIBILITY.


SDZ001>005-009-010-012>017-022000-
NORTHWEST AND NORTH CENTRAL SOUTH DAKOTA

CITY           SKY/WX    TMP DP  RH WIND       PRES   REMARKS
BUFFALO          N/A     64  34  32 N23G35    29.97F
FAITH            N/A     55  40  56 E12       30.05R
MOBRIDGE       LGT RAIN  51  48  89 S6        30.01F
$$

SDZ012>016-024>037-041>051-057-063-072>074-022000-
SOUTHWEST AND SOUTH CENTRAL SOUTH DAKOTA

CITY           SKY/WX    TMP DP  RH WIND       PRES   REMARKS
RAPID CTY ARPT MOSUNNY   65  34  31 N22G28    30.06F
PIERRE         MOSUNNY   63  36  36 NW10      30.02F
CUSTER         PTSUNNY   54  25  32 SW7       30.10F
ELLSWORTH AFB  MOSUNNY   64  32  30 N17G28    30.06F
PHILIP         PTSUNNY   64  33  31 W13       30.05F
PINE RIDGE     SUNNY     59  32  36 N6        30.09F
WINNER         FAIR      65  39  38 W8        30.05F
$$

SDZ004>011-016>023-039-040-022000-
NORTHEAST SOUTH DAKOTA

CITY           SKY/WX    TMP DP  RH WIND       PRES   REMARKS
ABERDEEN       CLOUDY    60  41  49 NW16      30.02F
WATERTOWN      MOSUNNY   63  30  28 VRB6      30.03F
BROOKINGS      SUNNY     62  32  32 S5        30.04F
SISSETON         N/A     67  28  23 SW9       30.00F
$$

SDZ017-020-022-023-036>040-048>070-022000-
SOUTHEAST SOUTH DAKOTA

CITY           SKY/WX    TMP DP  RH WIND       PRES   REMARKS
SIOUX FALLS    PTSUNNY   61  36  39 VRB7      30.06F
HURON          MOSUNNY   64  37  36 S10       30.02F
CHAMBERLAIN    PTSUNNY   64  44  47 SW12G18   30.04F
MITCHELL       MOSUNNY   62  37  39 SW8       30.06F
YANKTON        CLOUDY    61  36  39 NW3       30.08F
$$

ABBREVIATIONS USED IN REMARKS
   TC - TEMPERATURE IN CELSIUS
  WCI - WIND CHILL INDEX
   HX - HEAT INDEX
  VSB - VISIBILITY





USA.gov is the U.S. government's official web portal to all federal, state and local government web resources and services.